STARLINK-33947 (63787 NORAD) Tracking and Keplerian Element Data

This shows tracking and keplerian element data for the satellite.

Feedback or suggestion? Click here.




ElementValue
Catalog63787
NameSTARLINK-33947
Epoch Orbit3667
Epoch Day353.7598509
Epoch Year2025
RAAN144.3017
Inclination42.9995
Eccentricity9.66E-05
Argument of Perigee271.9161
Mean Anonmoly88.158
Mean Motion15.27595812
Decay Rate0.00015646
L11 63787U 25091N 25353.75985090 .00015646 00000+0 57660-3 0 9997
L22 63787 42.9995 144.3017 0000966 271.9161 88.1580 15.27595812 36676



Live tracking and technical data element details for STARLINK-33947 (NORAD 63787). STARLINK-33947 can be tracked NOW for your location showing map with azimuth and elevation plus other details from your city location.







IsCatalogInMostPopularTable: catalog: 63787, numindb: 2
Update: records affected: 1



GetName: 63787 STARLINK-33947

Hit Count: updated at: Tue, 10 Feb 2026 02:18:16 GMT